Weather History for Chrysopouli, Greece

Change the Weather History Date:

Thursday, October 4, 2012

  Actual Average Record
Temperature  
Mean Temperature 72 °F -  
Max Temperature 80 °F 72 °F 80 °F (1999)
Min Temperature 64 °F 56 °F 41 °F (2013)
Cooling Degree Days 7    
Growing Degree Days 22 (Base 50)    
Moisture  
Dew Point 62 °F    
Average Humidity 73    
Maximum Humidity 88    
Minimum Humidity 51    
Precipitation  
Precipitation 0.00 in - - ()
Sea Level Pressure  
Sea Level Pressure 29.93 in    
Wind  
Wind Speed 4 mph ()    
Max Wind Speed 10 mph    
Max Gust Speed -    
Visibility 6.2 miles    
Events Rain , Thunderstorm    
Averages and records for this station are not official NWS values.
T = Trace of Precipitation, MM = Missing Value Source: Averaged Metar Reports

Daily Weather History Graph

Daily Weather History Graph

Search for Another Location

Airport:

Trip Planner

Search our weather history database for the weather conditions in past years. The results will help you decide how hot, cold, wet, or windy it might be!

Date:

Astronomy

Oct. 04, 2012 Rise Set
Actual Time 7:21 AM EEST 6:58 PM EEST
Civil Twilight 6:53 AM EEST 7:25 PM EEST
Nautical Twilight 6:22 AM EEST 7:57 PM EEST
Astronomical Twilight 5:50 AM EEST 8:29 PM EEST
Moon 9:17 PM EEST (10/4) 11:23 AM EEST (10/4)
Length of Visible Light 12h 31m
Length of Day
11h 36m
Waning Gibbous, 84% of the Moon is Illuminated
Oct 4
Waning Gibbous
Oct 8
Last Quarter
Oct 15
New
Oct 22
First Quarter
Oct 29
Full

Hourly Weather History & Observations

Time (EEST) Temp. Heat Index Dew Point Humidity Pressure Visibility Wind Dir Wind Speed Gust Speed Precip Events Conditions
5:20 AM 66.2 °F - 60.8 °F 83% 29.92 in 6.2 mi NE 5.8 mph - N/A Thunderstorm Thunderstorm
5:50 AM 66.2 °F - 60.8 °F 83% 29.92 in 6.2 mi East 4.6 mph - N/A Thunderstorm Thunderstorm
6:20 AM 66.2 °F - 60.8 °F 83% 29.92 in 6.2 mi East 5.8 mph - N/A Thunderstorm Thunderstorm
6:50 AM 66.2 °F - 60.8 °F 83% 29.95 in 6.2 mi Calm Calm - N/A Thunderstorm Thunderstorm
7:20 AM 66.2 °F - 60.8 °F 83% 29.95 in 6.2 mi NE 4.6 mph - N/A Thunderstorm Thunderstorm
7:50 AM 64.4 °F - 60.8 °F 88% 29.95 in 6.2 mi Variable 3.5 mph - N/A Thunderstorm Thunderstorm
8:20 AM 64.4 °F - 60.8 °F 88% 29.95 in 6.2 mi Calm Calm - N/A Rain , Thunderstorm Light Thunderstorms and Rain
8:50 AM 66.2 °F - 62.6 °F 88% 29.95 in 6.2 mi Calm Calm - N/A Rain , Thunderstorm Light Thunderstorms and Rain
9:20 AM 66.2 °F - 62.6 °F 88% 29.95 in 6.2 mi SSE 4.6 mph - N/A Thunderstorm Thunderstorm
9:50 AM 69.8 °F - 66.2 °F 88% 29.95 in 6.2 mi Calm Calm - N/A   Scattered Clouds
10:20 AM 71.6 °F - 68.0 °F 88% 29.95 in 6.2 mi Calm Calm - N/A   Scattered Clouds
10:50 AM 73.4 °F - 64.4 °F 73% 29.95 in 6.2 mi Calm Calm - N/A   Partly Cloudy
11:20 AM 75.2 °F - 64.4 °F 69% 29.95 in 6.2 mi Variable 3.5 mph - N/A   Scattered Clouds
11:50 AM 75.2 °F - 62.6 °F 65% 29.95 in 6.2 mi SSW 5.8 mph - N/A   Scattered Clouds
12:20 PM 77.0 °F - 62.6 °F 61% 29.95 in 6.2 mi SW 4.6 mph - N/A   Partly Cloudy
12:50 PM 78.8 °F - 62.6 °F 57% 29.95 in 6.2 mi SSW 4.6 mph - N/A   Scattered Clouds
1:20 PM 78.8 °F - 62.6 °F 57% 29.95 in 6.2 mi SSW 6.9 mph - N/A   Scattered Clouds
1:50 PM 80.6 °F 81.5 °F 60.8 °F 51% 29.95 in 6.2 mi SSE 10.4 mph - N/A   Scattered Clouds
2:20 PM 80.6 °F 81.5 °F 60.8 °F 51% 29.92 in 6.2 mi SE 9.2 mph - N/A   Partly Cloudy
2:50 PM 80.6 °F 81.5 °F 60.8 °F 51% 29.92 in 6.2 mi SE 10.4 mph - N/A   Partly Cloudy
3:20 PM 80.6 °F 81.5 °F 60.8 °F 51% 29.92 in 6.2 mi SSE 10.4 mph - N/A   Partly Cloudy
3:50 PM 78.8 °F - 60.8 °F 54% 29.92 in 6.2 mi South 9.2 mph - N/A   Partly Cloudy
4:20 PM 78.8 °F - 60.8 °F 54% 29.92 in 6.2 mi SW 8.1 mph - N/A   Partly Cloudy
4:50 PM 77.0 °F - 62.6 °F 61% 29.92 in 6.2 mi WSW 5.8 mph - N/A   Partly Cloudy
5:20 PM 77.0 °F - 62.6 °F 61% 29.92 in 6.2 mi WSW 5.8 mph - N/A   Partly Cloudy
5:50 PM 75.2 °F - 62.6 °F 65% 29.92 in 6.2 mi West 6.9 mph - N/A Thunderstorm Thunderstorm
6:20 PM 75.2 °F - 62.6 °F 65% 29.92 in 6.2 mi West 4.6 mph - N/A Thunderstorm Thunderstorm
6:50 PM 71.6 °F - 64.4 °F 78% 29.92 in 6.2 mi Variable 3.5 mph - N/A   Scattered Clouds
7:20 PM 71.6 °F - 64.4 °F 78% 29.92 in 6.2 mi Variable 4.6 mph - N/A   Partly Cloudy
7:50 PM 69.8 °F - 62.6 °F 78% 29.92 in 6.2 mi Calm Calm - N/A   Partly Cloudy
8:20 PM 69.8 °F - 62.6 °F 78% 29.92 in - Calm Calm - N/A   Clear
8:50 PM 66.2 °F - 60.8 °F 83% 29.92 in - Calm Calm - N/A   Clear
9:20 PM 66.2 °F - 60.8 °F 83% 29.92 in - Calm Calm - N/A   Clear
9:50 PM 66.2 °F - 60.8 °F 83% 29.92 in - Calm Calm - N/A   Clear
10:20 PM 66.2 °F - 60.8 °F 83% 29.95 in - Calm Calm - N/A   Clear
10:50 PM 64.4 °F - 59.0 °F 83% 29.95 in - Calm Calm - N/A   Clear